User: anonymous   Login
Location: Unspecified
(0.0000°N, 0.0000°E)
Time: 13:59:58
(UTC+00:00)
Language:

UHF F/O F4 - Orbit

View from above orbital plane
View from above orbital plane
View from above satellite
View from above satellite

Ground track
Ground track

The orbit data is extracted from the following two-line orbital elements,

1 23467U 95003A   16246.40963482 0.00000000  00000-0  00000-0 0    07
2 23467   9.3481  29.8597 0005346  35.1361 324.9225  1.00270000    03
Epoch (UTC): 02 September 2016 09:49:52
Eccentricity: 0.0005346
inclination: 9.3481°
perigee height: 35764 km
apogee height: 35809 km
right ascension of ascending node: 29.8597°
argument of perigee: 35.1361°
revolutions per day: 1.00270000
mean anomaly at epoch: 324.9225°
orbit number at epoch: 0

The dashed part of the orbit path shows where the satellite is in the earth's shadow,  

DLR